Date String (YYYY-MM-DD hh:mm:ss) UTC,Instrument flags,Ambient pressure (hPa),Sample flow (lpm),Bypass flow (lpm),Sample temperature (°C),Ambient temperature (°C),ASC tube jacket temperature (°C),LED temperature (°C),Box temperature (°C),Sample RH (%),Span deviation,Mass concentration (μg/m³),Mass concentration (μg/m³),Mass concentration (μg/m³)
DateTimeUTC,F1_M11,P_M11,Q1_M11,Q2_M11,T1_M11,T2_M11,T3_M11,T4_M11,T5_M11,U1_M11,ZSPAN_M11,X0_M11,X2_M11,X1_M11
2022-01-10 10:00:00,,0838.7,5.01,0.00,22.4,21.9,00.0,31.4,24.1,05.9,0000.0,0000.26,0000.21,0000.18
2022-01-10 10:01:00,,0838.7,5.00,0.00,22.4,21.8,00.0,31.4,24.1,06.0,0000.0,0000.30,0000.22,0000.19
2022-01-10 10:02:00,,0838.8,5.00,0.00,22.4,21.8,00.0,31.4,24.1,06.0,0000.0,0000.32,0000.24,0000.20
2022-01-10 10:03:00,,0838.8,5.01,0.00,22.4,21.7,00.0,31.4,24.1,05.9,0000.0,0000.33,0000.24,0000.21
2022-01-10 10:04:00,,0838.8,4.99,0.00,22.4,21.7,00.0,31.4,24.1,06.0,0000.0,0000.32,0000.24,0000.22
2022-01-10 10:05:00,,0838.9,5.01,0.00,22.4,21.7,00.0,31.4,24.1,06.1,0000.0,0000.36,0000.26,0000.23
2022-01-10 10:06:00,,0838.8,5.00,0.00,22.3,21.6,00.0,31.4,24.0,06.1,0000.0,0000.36,0000.26,0000.23
2022-01-10 10:07:00,,0838.9,5.00,0.00,22.3,21.6,00.0,31.4,24.0,06.0,0000.0,0000.37,0000.26,0000.24
2022-01-10 10:08:00,,0838.9,5.01,0.00,22.3,21.6,00.0,31.4,24.0,06.0,0000.0,0000.39,0000.27,0000.24
2022-01-10 10:09:00,,0838.9,5.01,0.00,22.3,21.6,00.0,31.4,24.0,06.0,0000.0,0000.40,0000.28,0000.25
2022-01-10 10:10:00,,0838.9,5.00,0.00,22.3,21.6,00.0,31.4,24.0,05.9,0000.0,0000.40,0000.29,0000.26
2022-01-10 10:11:00,,0838.8,5.00,0.00,22.3,21.5,00.0,31.3,23.9,05.9,0000.0,0000.39,0000.28,0000.25
2022-01-10 10:12:00,,0838.8,5.01,0.00,22.3,21.8,00.0,31.4,24.0,05.8,0000.0,0000.35,0000.27,0000.25
2022-01-10 10:13:00,,0838.9,5.00,0.00,22.4,22.6,00.0,31.4,24.3,05.8,0000.0,0000.34,0000.26,0000.24
2022-01-10 10:14:00,,0838.9,4.99,0.00,22.6,23.2,00.0,31.4,24.5,05.7,0000.0,0000.34,0000.26,0000.24
2022-01-10 10:15:00,,0839.0,5.00,0.00,22.7,23.2,00.0,31.5,24.6,05.7,0000.0,0000.34,0000.26,0000.24
2022-01-10 10:16:00,,0838.9,5.00,0.00,22.7,22.9,00.0,31.5,24.6,05.7,0000.0,0000.33,0000.26,0000.25
2022-01-10 10:17:00,,0838.9,5.00,0.00,22.7,22.7,00.0,31.5,24.5,05.7,0000.0,0000.37,0000.29,0000.26
2022-01-10 10:18:00,,0838.9,5.00,0.00,22.7,22.6,00.0,31.5,24.5,05.7,0000.0,0000.38,0000.30,0000.26
2022-01-10 10:19:00,,0838.9,5.00,0.00,22.6,22.4,00.0,31.5,24.4,05.7,0000.0,0000.37,0000.29,0000.26
2022-01-10 10:20:00,,0838.8,5.00,0.00,22.6,22.3,00.0,31.5,24.4,05.7,0000.0,0000.39,0000.30,0000.26
2022-01-10 10:21:00,,0838.9,5.00,0.00,22.6,22.2,00.0,31.5,24.3,05.9,0000.0,0000.40,0000.30,0000.26
2022-01-10 10:22:00,,0838.9,5.01,0.00,22.6,22.1,00.0,31.5,24.3,05.9,0000.0,0000.39,0000.30,0000.26
2022-01-10 10:23:00,,0838.8,5.00,0.00,22.6,22.0,00.0,31.5,24.3,05.9,0000.0,0000.40,0000.30,0000.26
2022-01-10 10:24:00,,0838.9,5.00,0.00,22.5,21.9,00.0,31.5,24.2,05.9,0000.0,0000.42,0000.31,0000.27
2022-01-10 10:25:00,,0838.9,5.00,0.00,22.5,21.9,00.0,31.5,24.2,06.0,0000.0,0000.47,0000.33,0000.27
2022-01-10 10:26:00,,0838.9,5.01,0.00,22.5,21.8,00.0,31.5,24.1,06.0,0000.0,0000.47,0000.33,0000.28
2022-01-10 10:27:00,,0838.9,5.00,0.00,22.4,21.8,00.0,31.5,24.1,06.1,0000.0,0000.46,0000.33,0000.28
2022-01-10 10:28:00,,0838.9,4.98,0.00,22.4,21.7,00.0,31.5,24.1,06.3,0000.0,0000.46,0000.32,0000.27
2022-01-10 10:29:00,,0838.9,5.01,0.00,22.4,21.7,00.0,31.5,24.1,06.4,0000.0,0000.47,0000.33,0000.28
2022-01-10 10:30:00,,0838.9,4.99,0.00,22.4,21.6,00.0,31.5,24.0,06.5,0000.0,0000.51,0000.35,0000.28
2022-01-10 10:31:00,,0838.9,5.00,0.00,22.3,21.6,00.0,31.5,24.0,06.5,0000.0,0000.49,0000.34,0000.28
2022-01-10 10:32:00,,0839.0,5.01,0.00,22.3,21.6,00.0,31.4,24.0,06.4,0000.0,0000.50,0000.35,0000.29
2022-01-10 10:33:00,,0838.9,4.99,0.00,22.3,21.6,00.0,31.4,24.0,06.2,0000.0,0000.53,0000.38,0000.31
2022-01-10 10:34:00,,0838.9,5.00,0.00,22.3,21.6,00.0,31.4,24.0,06.2,0000.0,0000.55,0000.39,0000.32
2022-01-10 10:35:00,,0838.9,5.01,0.00,22.3,21.6,00.0,31.4,24.0,06.2,0000.0,0000.55,0000.39,0000.33
2022-01-10 10:36:00,,0838.9,5.00,0.00,22.3,21.9,00.0,31.4,24.0,06.2,0000.0,0000.51,0000.39,0000.33
2022-01-10 10:37:00,,0838.9,5.00,0.00,22.4,22.6,00.0,31.4,24.2,06.2,0000.0,0000.60,0000.41,0000.35
2022-01-10 10:38:00,,0839.0,5.00,0.00,22.6,23.2,00.0,31.5,24.5,06.2,0000.0,0000.66,0000.43,0000.36
2022-01-10 10:39:00,,0839.0,4.99,0.00,22.7,23.2,00.0,31.5,24.6,06.1,0000.0,0000.68,0000.44,0000.37
2022-01-10 10:40:00,,0839.0,5.00,0.00,22.7,23.0,00.0,31.5,24.6,06.1,0000.0,0000.67,0000.44,0000.38
2022-01-10 10:41:00,,0839.0,5.00,0.00,22.7,22.8,00.0,31.5,24.5,06.1,0000.0,0000.66,0000.43,0000.39
2022-01-10 10:42:00,,0839.0,5.01,0.00,22.7,22.6,00.0,31.5,24.5,05.9,0000.0,0000.66,0000.44,0000.40
2022-01-10 10:43:00,,0839.0,5.00,0.00,22.7,22.4,00.0,31.5,24.4,05.8,0000.0,0000.70,0000.46,0000.41
2022-01-10 10:44:00,,0839.0,5.00,0.00,22.6,22.3,00.0,31.5,24.4,05.7,0000.0,0000.74,0000.46,0000.40
2022-01-10 10:45:00,,0839.0,5.00,0.00,22.6,22.2,00.0,31.6,24.4,05.7,0000.0,0000.77,0000.48,0000.41
2022-01-10 10:46:00,,0839.0,5.00,0.00,22.6,22.1,00.0,31.5,24.4,05.7,0000.0,0000.82,0000.50,0000.41
2022-01-10 10:47:00,,0839.0,5.00,0.00,22.6,22.1,00.0,31.5,24.4,05.7,0000.0,0000.85,0000.51,0000.43
2022-01-10 10:48:00,,0839.0,4.99,0.00,22.6,22.0,00.0,31.6,24.4,05.8,0000.0,0000.82,0000.51,0000.42
2022-01-10 10:49:00,,0839.0,5.02,0.00,22.6,22.0,00.0,31.6,24.4,05.8,0000.0,0000.76,0000.50,0000.42
2022-01-10 10:50:00,,0839.0,4.99,0.00,22.6,21.9,00.0,31.6,24.3,05.7,0000.0,0000.76,0000.52,0000.43
2022-01-10 10:51:00,,0839.0,5.01,0.00,22.6,21.9,00.0,31.5,24.3,05.7,0000.0,0000.78,0000.53,0000.43
2022-01-10 10:52:00,,0839.0,4.98,0.00,22.6,21.9,00.0,31.5,24.3,05.9,0000.0,0000.80,0000.53,0000.43
2022-01-10 10:53:00,,0839.0,5.02,0.00,22.5,21.8,00.0,31.5,24.3,05.9,0000.0,0000.84,0000.55,0000.44
2022-01-10 10:54:00,,0839.0,4.99,0.00,22.5,21.8,00.0,31.5,24.2,06.0,0000.0,0000.91,0000.58,0000.45
2022-01-10 10:55:00,,0839.0,5.01,0.00,22.5,21.7,00.0,31.5,24.2,06.0,0000.0,0001.90,0000.60,0000.47
2022-01-10 10:56:00,,0839.0,4.99,0.00,22.5,21.7,00.0,31.5,24.2,06.0,0000.0,0002.25,0000.61,0000.47
2022-01-10 10:57:00,,0839.0,5.01,0.00,22.4,21.6,00.0,31.5,24.1,06.1,0000.0,0002.21,0000.59,0000.47
2022-01-10 10:58:00,,0839.0,4.99,0.00,22.4,21.5,00.0,31.5,24.1,06.1,0000.0,0002.20,0000.60,0000.47
2022-01-10 10:59:00,,0839.0,5.00,0.00,22.4,21.5,00.0,31.5,24.1,06.1,0000.0,0002.21,0000.61,0000.48
